Showing default

TJS-20, 66142

Orbit data source: Space-Track

TJS-20, 66142 is a Chinese payload satellite in GEO that was launched on Thu, 23 Oct 2025 UTC via a CHANG ZHENG 5 launch vehicle from the Wenchang Satellite Launch Center (WSC). Payload-class satellites include a variety of spacecraft equipped with specific instruments for various scientific and technological missions. These include communications satellites like Starlink; space stations such as the ISS; scientific satellites like the Hubble; Earth observation satellites from companies like Planet Labs, Umbra, and HawkEye 360; GPS; miniature CubeSats for education and research; and military/defense satellites.

Not visible in the next 10 days
Identifier
66142, 2025-238A
Orbit
GEO
Country
Flag of CNCN / PRC
Related business
Manufacturer
CAST
Mission
Operational Defense Sigint
Bus & Motor
TJS11, Unknown motor
Mass
~10,000 kg wet, ~6,000 kg dry
Launch date (UTC)
2025-10-23 (7 months ago)
Launch vehicle
CHANG ZHENG 5
Launch site
Wenchang Satellite Launch Center (WSC)
Object type
Payload
Rocket body
Debris
Shape & HBR
Box + 2 Pan + 1 Dish, 22.5 m
Radar Cross Section
63.841 m²

Expand to show TLE details & history
Last TLE update: 21 hours ago

TLE from 21 hours ago
0 TJS-20
1 66142U 25238A   26145.52484510  .00000017  00000-0  00000-0 0  9994
2 66142   5.5189 299.6525 0004341 142.3557  52.4669  1.00269094  2102
Epoch: 2026-05-25T12:35Z
TLE epoch observation values (Epoch: 2026-05-25T12:35:46.616Z)
Latitude
-1.425°
Longitude
62.38934°
Altitude
35,775.92 km
Speed
3.075 km/s
True Right ascension
08h 57m 46s
True Declination
-1° 25' 25"
Sunlit
Object was in daylight at epoch
Visualization orbit readout
Latitude
Unknown
Longitude
Unknown
Altitude
Unknown
Speed
Unknown
Apparent Right ascension
Unknown
Apparent Declination
Unknown
Sunlit
N/A
Visualization observer readout
Local Sidereal Time
19:07:38
Azimuth
Unknown
Elevation
Unknown
Doppler factor
Unknown
Orbital elements
Apogee altitude
35,806.71 km
Perigee altitude
35,770.101 km
Semi-major axis
42,166.542 km
Eccentricity
0.00043
Inclination
5.5189°
RAAN
299.6525°
Arg. of periapsis
142.3557°
True anomaly
52.50636°
Mean anomaly
52.4669°
Eccentric anomaly
52.48663°
Mean motion
0.25066 °/min
Orbital period
1,436.19 mins
BSTAR
0
Loading maneuver chart data...
Computing Atmospheric mass density...
Loading historical data...
Loading historical data...
Loading historical data...
Loading historical data...
Loading historical data...
Loading historical data...
Loading historical data...
Other satellites on launch #238 in the year 2025 (2025-10-23 UTC)

Documentation

Showing up to 5 results
|